DECAYED

OBJECT K, 43840 (Decayed)

Orbit data source: Space-Track

You're viewing an Uncataloged Satellite

Recently launched and/or uncataloged satellites may have evolving metadata. Metadata may include but not limited to: Owner, Maufacturer, Bus, Motor, and Mission.

OBJECT K, 43840 was a satellite in LEO that was launched on Fri, 07 Dec 2018 UTC via a CHANG ZHENG 2D launch vehicle from the Jiuquan Satellite Launch Center, China (JSC). Unknown objects in Earth's orbit typically refer to objects detected orbiting the Earth but have not yet been identified or cataloged. These objects could be anything from previously untracked satellites, spent rocket stages, debris from satellite collisions, or even natural meteoroids temporarily captured by Earth's gravity. This object's orbit decayed before it could be identified.

Not visible in the next 10 days
Identifier
43840, 2018-102K
Orbit
Decayed
Country
Flag of TBDTBD
Related business
None
Manufacturer
Jiutian
Mission
Decayed Commercial Communications
Bus & Motor
CUBESAT 3U?, Unknown motor
Mass
5 kg wet, 5 kg dry
Launch date (UTC)
2018-12-07 (7 years ago)
Launch vehicle
CHANG ZHENG 2D
Launch site
Jiuquan Satellite Launch Center, China (JSC)
Object type
Unknown
Shape & HBR
Box, 0.1 m
Radar Cross Section
0.035 m², Medium (>0.1 m² and < 1m²)

Expand to show TLE details & history
Last TLE update: 1 year ago

TLE from 1 year ago
0 OBJECT K
1 43840U 18102K   24169.76541773  .07803953  24993-5  17417-2 0  9992
2 43840  97.4078 262.3643 0016574 273.0221  86.9176 16.29901322306317
Epoch: 2024-06-17T18:22Z
TLE epoch observation values (Epoch: 2024-06-17T18:22:12.091Z)
Latitude
-0.00009°
Longitude
80.31811°
Altitude
195.475 km
Speed
7.789 km/s
True Right ascension
17h 29m 27s
True Declination
0° 00' 00"
Sunlit
Object was in full shadow at epoch
Visualization orbit readout
Latitude
Unknown
Longitude
Unknown
Altitude
Unknown
Speed
Unknown
Apparent Right ascension
Unknown
Apparent Declination
Unknown
Sunlit
N/A
Visualization observer readout
Local Sidereal Time
09:29:01
Azimuth
Unknown
Elevation
Unknown
Doppler factor
Unknown
Orbital elements
Apogee altitude
200.511 km
Perigee altitude
178.741 km
Semi-major axis
6,567.763 km
Eccentricity
0.00166
Inclination
97.4078°
RAAN
262.3643°
Arg. of periapsis
273.0221°
True anomaly
87.10727°
Mean anomaly
86.9176°
Eccentric anomaly
87.01243°
Mean motion
4.07772 °/min
Orbital period
88.28 mins
BSTAR
0.0017417
Loading maneuver chart data...
Computing Atmospheric mass density...
Loading historical data...
Loading historical data...
Loading historical data...
Loading historical data...
Loading historical data...
Loading historical data...
Loading historical data...

Documentation

Showing up to 5 results
|